TimeCST,TemperatureF,Dew PointF,Humidity,Sea Level PressureIn,VisibilityMPH,Wind Direction,Wind SpeedMPH,Gust SpeedMPH,PrecipitationIn,Events,Conditions,WindDirDegrees,DateUTC
12:53 AM,54.0,46.0,75,30.13,10.0,Calm,Calm,-,N/A,,Clear,0,2012-11-07 06:53:00
1:53 AM,53.1,46.0,77,30.14,10.0,Calm,Calm,-,N/A,,Clear,0,2012-11-07 07:53:00
2:53 AM,50.0,44.1,80,30.13,10.0,Calm,Calm,-,N/A,,Clear,0,2012-11-07 08:53:00
3:53 AM,53.1,46.0,77,30.13,10.0,SW,5.8,-,N/A,,Clear,230,2012-11-07 09:53:00
4:53 AM,51.1,45.0,80,30.14,10.0,Calm,Calm,-,N/A,,Clear,0,2012-11-07 10:53:00
5:53 AM,48.9,44.1,83,30.15,10.0,Calm,Calm,-,N/A,,Clear,0,2012-11-07 11:53:00
6:53 AM,48.0,43.0,83,30.16,10.0,North,3.5,-,N/A,,Clear,10,2012-11-07 12:53:00
7:53 AM,53.1,45.0,74,30.19,10.0,Calm,Calm,-,N/A,,Clear,0,2012-11-07 13:53:00
8:53 AM,59.0,42.1,53,30.19,10.0,Calm,Calm,-,N/A,,Clear,0,2012-11-07 14:53:00
9:53 AM,66.0,41.0,40,30.19,10.0,Variable,3.5,-,N/A,,Clear,0,2012-11-07 15:53:00
10:53 AM,66.9,33.1,28,30.18,10.0,Calm,Calm,-,N/A,,Clear,0,2012-11-07 16:53:00
11:53 AM,70.0,32.0,25,30.16,10.0,SSE,5.8,-,N/A,,Clear,150,2012-11-07 17:53:00
12:53 PM,71.1,32.0,24,30.12,10.0,Variable,3.5,-,N/A,,Clear,0,2012-11-07 18:53:00
1:53 PM,73.0,33.1,23,30.09,10.0,West,3.5,-,N/A,,Clear,280,2012-11-07 19:53:00
2:53 PM,73.9,34.0,23,30.08,10.0,Calm,Calm,-,N/A,,Clear,0,2012-11-07 20:53:00
3:53 PM,73.9,34.0,23,30.07,10.0,Calm,Calm,-,N/A,,Clear,0,2012-11-07 21:53:00
4:53 PM,73.0,35.1,25,30.07,10.0,East,4.6,-,N/A,,Clear,90,2012-11-07 22:53:00
5:53 PM,68.0,37.0,32,30.07,10.0,East,6.9,-,N/A,,Clear,100,2012-11-07 23:53:00
6:53 PM,66.0,36.0,33,30.08,10.0,East,6.9,-,N/A,,Clear,100,2012-11-08 00:53:00
7:53 PM,62.1,37.0,39,30.08,10.0,SE,6.9,-,N/A,,Clear,130,2012-11-08 01:53:00
8:53 PM,61.0,36.0,39,30.09,10.0,ESE,8.1,-,N/A,,Clear,120,2012-11-08 02:53:00
9:53 PM,60.1,36.0,41,30.09,10.0,SE,11.5,-,N/A,,Clear,130,2012-11-08 03:53:00
10:53 PM,60.1,36.0,41,30.08,10.0,SE,13.8,-,N/A,,Clear,130,2012-11-08 04:53:00
11:53 PM,59.0,37.0,44,30.07,10.0,ESE,12.7,-,N/A,,Clear,120,2012-11-08 05:53:00